LRCK Weather Reports


Display with metric or nautical units.
time (UTC)temp
F
wind
direction
speed
MPH
gust
MPH
rain 1hr
in
rain 24hr
in
rain mn
in
humidity
%
barometer
mb
20260506043321 54 270 3.0 0.0 0.00 0.00 0.00 58 1015.0
20260506041818 48 270 6.0 0.0 0.00 0.00 0.00 71 1015.0
20260506040317 48 270 6.0 0.0 0.00 0.00 0.00 71 1015.0
20260506034817 45 260 6.0 0.0 0.00 0.00 0.00 76 1015.0
20260506033317 45 260 6.0 0.0 0.00 0.00 0.00 76 1015.0
20260506031817 43 280 7.0 0.0 0.00 0.00 0.00 81 1015.0
20260506030316 43 280 7.0 0.0 0.00 0.00 0.00 81 1015.0
20260506024817 41 270 7.0 0.0 0.00 0.00 0.00 87 1015.0
20260506023317 41 270 7.0 0.0 0.00 0.00 0.00 87 1015.0
20260506021817 43 280 7.0 0.0 0.00 0.00 0.00 81 1015.0
20260506020317 43 280 7.0 0.0 0.00 0.00 0.00 81 1015.0
20260506014816 43 280 8.0 0.0 0.00 0.00 0.00 81 1015.0
20260506013317 43 280 8.0 0.0 0.00 0.00 0.00 81 1015.0
20260506011817 43 280 8.0 0.0 0.00 0.00 0.00 81 1015.0
20260506010317 43 280 8.0 0.0 0.00 0.00 0.00 81 1015.0
20260506004817 45 280 8.0 0.0 0.00 0.00 0.00 81 1015.0
20260506003433 45 280 8.0 0.0 0.00 0.00 0.00 81 1015.0
20260506001817 45 260 7.0 0.0 0.00 0.00 0.00 81 1015.0
20260506000318 45 260 7.0 0.0 0.00 0.00 0.00 81 1015.0
20260505234817 45 240 6.0 0.0 0.00 0.00 0.00 81 1015.0
20260505233316 45 240 6.0 0.0 0.00 0.00 0.00 81 1015.0
20260505231817 45 230 7.0 0.0 0.00 0.00 0.00 81 1015.0
20260505230317 45 230 7.0 0.0 0.00 0.00 0.00 81 1015.0
20260505224817 43 230 6.0 0.0 0.00 0.00 0.00 87 1016.0
20260505223317 43 230 6.0 0.0 0.00 0.00 0.00 87 1016.0
20260505221814 43 240 6.0 0.0 0.00 0.00 0.00 87 1016.0
20260505220317 43 240 6.0 0.0 0.00 0.00 0.00 87 1016.0
20260505214818 46 240 6.0 0.0 0.00 0.00 0.00 76 1016.0
20260505213317 46 240 6.0 0.0 0.00 0.00 0.00 76 1016.0
20260505211817 45 220 6.0 0.0 0.00 0.00 0.00 87 1016.0
20260505210317 45 220 6.0 0.0 0.00 0.00 0.00 87 1016.0
20260505204819 46 200 5.0 0.0 0.00 0.00 0.00 87 1016.0
20260505203316 46 200 5.0 0.0 0.00 0.00 0.00 87 1016.0
20260505201848 45 190 7.0 0.0 0.00 0.00 0.00 87 1016.0
20260505200317 45 190 7.0 0.0 0.00 0.00 0.00 87 1016.0
20260505194817 46 180 8.0 0.0 0.00 0.00 0.00 87 1016.0
20260505193317 46 180 8.0 0.0 0.00 0.00 0.00 87 1016.0
20260505191817 46 170 7.0 0.0 0.00 0.00 0.00 82 1016.0
20260505190316 46 170 7.0 0.0 0.00 0.00 0.00 82 1016.0
20260505184818 46 150 7.0 0.0 0.00 0.00 0.00 82 1016.0
20260505183317 46 150 7.0 0.0 0.00 0.00 0.00 82 1016.0
20260505181817 48 160 6.0 0.0 0.00 0.00 0.00 82 1016.0
20260505180317 48 160 6.0 0.0 0.00 0.00 0.00 82 1016.0
20260505174814 50 140 7.0 0.0 0.00 0.00 0.00 82 1015.0
20260505173317 50 140 7.0 0.0 0.00 0.00 0.00 82 1015.0
20260505171817 52 130 7.0 0.0 0.00 0.00 0.00 82 1015.0
20260505170317 52 130 7.0 0.0 0.00 0.00 0.00 82 1015.0
20260505164817 55 120 9.0 0.0 0.00 0.00 0.00 67 1015.0
20260505163317 55 120 9.0 0.0 0.00 0.00 0.00 67 1015.0
20260505161818 57 130 9.0 0.0 0.00 0.00 0.00 63 1015.0
20260505160317 57 130 9.0 0.0 0.00 0.00 0.00 63 1015.0
20260505153317 59 130 10.0 0.0 0.00 0.00 0.00 59 1015.0
20260505151825 61 120 10.0 0.0 0.00 0.00 0.00 55 1016.0
20260505150317 61 120 10.0 0.0 0.00 0.00 0.00 55 1016.0
20260505140317 63 120 11.0 0.0 0.00 0.00 0.00 42 1016.0
20260505124817 63 120 11.0 0.0 0.00 0.00 0.00 45 1016.0
20260505123317 63 120 11.0 0.0 0.00 0.00 0.00 45 1016.0
20260505121817 64 110 10.0 0.0 0.00 0.00 0.00 43 1016.0
20260505120323 64 120 13.0 0.0 0.00 0.00 0.00 43 1016.0
20260505114824 64 120 13.0 0.0 0.00 0.00 0.00 43 1016.0
20260505113348 64 120 13.0 0.0 0.00 0.00 0.00 43 1016.0
20260505111817 64 120 11.0 0.0 0.00 0.00 0.00 43 1016.0
20260505110317 64 120 11.0 0.0 0.00 0.00 0.00 43 1016.0
20260505101818 64 110 11.0 0.0 0.00 0.00 0.00 40 1016.0
20260505100317 64 110 11.0 0.0 0.00 0.00 0.00 40 1016.0
20260505094818 66 60 7.0 0.0 0.00 0.00 0.00 37 1016.0
20260505093317 66 60 7.0 0.0 0.00 0.00 0.00 37 1016.0
20260505091817 66 50 3.0 0.0 0.00 0.00 0.00 43 1016.0
20260505090317 66 50 3.0 0.0 0.00 0.00 0.00 43 1016.0
20260505084817 64 70 5.0 0.0 0.00 0.00 0.00 40 1016.0
20260505083317 64 70 5.0 0.0 0.00 0.00 0.00 40 1016.0
20260505081817 64 50 5.0 0.0 0.00 0.00 0.00 46 1016.0
20260505080317 64 50 5.0 0.0 0.00 0.00 0.00 46 1016.0
20260505074833 63 50 5.0 0.0 0.00 0.00 0.00 45 1016.0
20260505073317 63 50 5.0 0.0 0.00 0.00 0.00 45 1016.0
20260505071817 63 50 5.0 0.0 0.00 0.00 0.00 45 1016.0
20260505070317 63 50 5.0 0.0 0.00 0.00 0.00 45 1016.0
20260505064817 63 40 5.0 0.0 0.00 0.00 0.00 42 1016.0
20260505063317 63 40 5.0 0.0 0.00 0.00 0.00 42 1016.0
20260505061817 61 30 6.0 0.0 0.00 0.00 0.00 42 1016.0
20260505060317 61 30 6.0 0.0 0.00 0.00 0.00 42 1016.0
20260505054817 57 330 3.0 0.0 0.00 0.00 0.00 59 1016.0
20260505053317 57 330 3.0 0.0 0.00 0.00 0.00 59 1016.0
20260505051817 54 320 5.0 0.0 0.00 0.00 0.00 58 1016.0
20260505050317 54 320 5.0 0.0 0.00 0.00 0.00 58 1016.0